Location: Helsinki
(60.1699°N, 24.9384°E)
Time: 16:30:42
(UTC+02:00)

SR - All Passes

Search period start: 30 October 2020 00:00
Search period end: 09 November 2020 00:00
Orbit: 581 x 874 km, 66.7° (Epoch: 30 October)

Date Brightness Start Highest point End Pass type
(mag) Time Alt. Az. Time Alt. Az. Time Alt. Az.
30 Oct - 01:18:45 10° SE 01:20:18 12° ESE 01:21:53 10° E visible
30 Oct - 02:57:06 10° SSW 03:01:16 50° SE 03:05:42 10° NE visible
30 Oct - 04:39:01 10° WSW 04:43:20 55° NNW 04:47:58 10° NE visible
30 Oct - 06:21:54 10° WNW 06:26:07 37° N 06:30:39 10° ENE visible
30 Oct - 08:04:24 10° NW 08:08:57 51° NNE 08:13:53 10° E daylight
30 Oct - 09:46:28 10° NW 09:51:12 65° SW 09:56:21 10° SE daylight
30 Oct - 11:29:11 10° WNW 11:32:36 19° WSW 11:36:10 10° SSW daylight
31 Oct - 02:07:58 10° S 02:11:46 31° ESE 02:15:47 10° ENE visible
31 Oct - 03:49:07 10° WSW 03:53:29 75° NW 03:58:09 10° NE visible
31 Oct - 05:31:52 10° W 05:36:05 39° N 05:40:37 10° ENE visible
31 Oct - 07:14:34 10° WNW 07:18:59 43° NNE 07:23:45 10° E daylight
31 Oct - 08:56:43 10° NW 09:01:29 88° NE 09:06:41 10° SE daylight
31 Oct - 10:39:00 10° WNW 10:43:12 29° WSW 10:47:41 10° S daylight
01 Nov - 01:19:21 10° SSE 01:22:25 19° ESE 01:25:36 10° ENE visible
01 Nov - 02:59:25 10° SW 03:03:44 76° SE 03:08:22 10° NE visible
01 Nov - 04:41:49 10° W 04:46:05 45° NNW 04:50:41 10° NE visible
01 Nov - 06:24:40 10° WNW 06:28:58 38° N 06:33:36 10° ENE visible
01 Nov - 08:06:58 10° NW 08:11:40 65° NNE 08:16:47 10° ESE daylight
01 Nov - 09:49:05 10° WNW 09:53:41 45° SW 09:58:39 10° SSE daylight
01 Nov - 11:32:50 10° W 11:34:45 12° WSW 11:36:43 10° SW daylight
02 Nov - 00:31:54 10° SE 00:33:12 11° ESE 00:34:31 10° E night (unlit)
02 Nov - 02:09:58 10° SSW 02:14:07 48° SE 02:18:32 10° NE visible
02 Nov - 03:51:49 10° WSW 03:56:10 57° NNW 04:00:50 10° NE visible
02 Nov - 05:34:41 10° WNW 05:38:56 37° N 05:43:29 10° ENE visible
02 Nov - 07:17:12 10° NW 07:21:46 50° NNE 07:26:43 10° E daylight
02 Nov - 08:59:17 10° NW 09:04:03 68° SW 09:09:15 10° SE daylight
02 Nov - 10:41:56 10° WNW 10:45:28 20° WSW 10:49:12 10° SSW daylight
03 Nov - 01:20:53 10° S 01:24:38 30° ESE 01:28:36 10° ENE visible
03 Nov - 03:01:56 10° WSW 03:06:19 78° NW 03:11:01 10° NE visible
03 Nov - 04:44:39 10° W 04:48:54 40° N 04:53:28 10° ENE visible
03 Nov - 06:27:23 10° WNW 06:31:48 42° NNE 06:36:35 10° E visible
03 Nov - 08:09:32 10° NW 08:14:19 85° NE 08:19:33 10° SE daylight
03 Nov - 09:51:47 10° WNW 09:56:04 31° WSW 10:00:39 10° S daylight
04 Nov - 00:32:19 10° SSE 00:35:18 18° ESE 00:38:24 10° ENE visible
04 Nov - 02:12:15 10° SW 02:16:34 73° SE 02:21:13 10° NE visible
04 Nov - 03:54:36 10° W 03:58:54 46° NNW 04:03:32 10° NE visible
04 Nov - 05:37:28 10° WNW 05:41:47 38° N 05:46:26 10° ENE visible
04 Nov - 07:19:48 10° NW 07:24:30 63° NNE 07:29:38 10° ESE daylight
04 Nov - 09:01:53 10° NW 09:06:33 47° SW 09:11:35 10° SSE daylight
04 Nov - 10:45:26 10° W 10:47:39 13° WSW 10:49:56 10° SW daylight
04 Nov - 23:45:08 10° ESE 23:46:05 11° ESE 23:47:03 10° E night (unlit)
05 Nov - 01:22:50 10° SSW 01:26:58 46° SE 01:31:23 10° NE visible
05 Nov - 03:04:37 10° WSW 03:08:59 58° NNW 03:13:41 10° NE visible
05 Nov - 04:47:29 10° WNW 04:51:45 38° N 04:56:20 10° ENE visible
05 Nov - 06:30:02 10° NW 06:34:36 49° NNE 06:39:34 10° E visible
05 Nov - 08:12:06 10° NW 08:16:54 70° SW 08:22:09 10° SE daylight
05 Nov - 09:54:42 10° WNW 09:58:22 21° WSW 10:02:14 10° SSW daylight
06 Nov - 00:33:47 10° S 00:37:30 29° ESE 00:41:26 10° ENE visible
06 Nov - 02:14:45 10° SW 02:19:09 80° NW 02:23:52 10° NE visible
06 Nov - 03:57:26 10° W 04:01:42 40° NNW 04:06:19 10° ENE visible
06 Nov - 05:40:11 10° WNW 05:44:37 42° NNE 05:49:25 10° E visible
06 Nov - 07:22:21 10° NW 07:27:11 83° NE 07:32:25 10° SE daylight
06 Nov - 09:04:35 10° WNW 09:08:57 32° WSW 09:13:37 10° S daylight
06 Nov - 23:45:17 10° SSE 23:48:11 18° ESE 23:51:11 10° ENE night (unlit)
07 Nov - 01:25:05 10° SW 01:29:25 70° SE 01:34:05 10° NE visible
07 Nov - 03:07:24 10° W 03:11:43 47° NNW 03:16:23 10° NE visible
07 Nov - 04:50:16 10° WNW 04:54:35 38° N 04:59:16 10° ENE visible
07 Nov - 06:32:37 10° NW 06:37:20 62° NNE 06:42:29 10° ESE visible
07 Nov - 08:14:42 10° NW 08:19:24 49° SW 08:24:31 10° SSE daylight
07 Nov - 09:58:05 10° W 10:00:33 14° WSW 10:03:07 10° SW daylight
07 Nov - 22:58:43 10° ESE 22:58:59 10° ESE 22:59:16 10° ESE night (unlit)
08 Nov - 00:35:42 10° SSW 00:39:50 44° SE 00:44:14 10° ENE visible
08 Nov - 02:17:24 10° WSW 02:21:48 60° NNW 02:26:32 10° NE visible
08 Nov - 04:00:16 10° WNW 04:04:33 38° N 04:09:11 10° ENE visible
08 Nov - 05:42:50 10° NW 05:47:25 49° NNE 05:52:24 10° E visible
08 Nov - 07:24:55 10° NW 07:29:46 73° SW 07:35:02 10° SE daylight
08 Nov - 09:07:27 10° WNW 09:11:15 22° WSW 09:15:15 10° SSW daylight
08 Nov - 23:46:41 10° S 23:50:22 27° ESE 23:54:15 10° ENE night (unlit)
